TimeCST,TemperatureF,Dew PointF,Humidity,Sea Level PressureIn,VisibilityMPH,Wind Direction,Wind SpeedMPH,Gust SpeedMPH,PrecipitationIn,Events,Conditions,WindDirDegrees,DateUTC
12:53 AM,28.9,23.0,78,30.23,10.0,SSE,4.6,-,N/A,,Overcast,150,2013-03-03 06:53:00
1:53 AM,28.0,21.9,78,30.23,10.0,SSE,4.6,-,N/A,,Clear,160,2013-03-03 07:53:00
2:53 AM,28.0,23.0,81,30.20,10.0,South,6.9,-,N/A,,Clear,170,2013-03-03 08:53:00
3:53 AM,28.9,23.0,78,30.17,10.0,SSE,6.9,-,N/A,,Clear,150,2013-03-03 09:53:00
4:53 AM,30.0,23.0,75,30.18,10.0,SE,6.9,-,N/A,,Clear,140,2013-03-03 10:53:00
5:53 AM,28.9,23.0,78,30.17,10.0,SSE,8.1,-,N/A,,Clear,160,2013-03-03 11:53:00
6:53 AM,28.9,21.9,75,30.17,10.0,SSE,8.1,-,N/A,,Clear,160,2013-03-03 12:53:00
7:53 AM,32.0,24.1,73,30.17,10.0,SSE,8.1,-,N/A,,Clear,160,2013-03-03 13:53:00
8:53 AM,37.9,25.0,60,30.15,10.0,SSE,13.8,-,N/A,,Clear,150,2013-03-03 14:53:00
9:53 AM,43.0,25.0,49,30.14,10.0,SSE,16.1,-,N/A,,Clear,160,2013-03-03 15:53:00
10:53 AM,48.9,25.0,39,30.10,10.0,SSE,15.0,23.0,N/A,,Clear,160,2013-03-03 16:53:00
11:53 AM,54.0,25.0,33,30.04,10.0,South,19.6,27.6,N/A,,Clear,170,2013-03-03 17:53:00
12:53 PM,57.0,27.0,32,30.00,10.0,South,21.9,26.5,N/A,,Clear,170,2013-03-03 18:53:00
1:53 PM,59.0,27.0,29,29.95,10.0,SSE,18.4,24.2,N/A,,Clear,160,2013-03-03 19:53:00
2:53 PM,61.0,28.0,29,29.92,10.0,SSE,13.8,21.9,N/A,,Clear,150,2013-03-03 20:53:00
3:53 PM,62.1,28.0,28,29.89,10.0,South,17.3,21.9,N/A,,Clear,170,2013-03-03 21:53:00
4:53 PM,61.0,28.0,29,29.86,10.0,South,19.6,25.3,N/A,,Clear,170,2013-03-03 22:53:00
5:53 PM,57.9,28.9,33,29.84,10.0,SSE,13.8,-,N/A,,Clear,150,2013-03-03 23:53:00
6:53 PM,55.9,30.0,37,29.85,10.0,SSE,11.5,-,N/A,,Clear,150,2013-03-04 00:53:00
7:53 PM,55.0,30.0,38,29.84,10.0,SE,13.8,-,N/A,,Clear,140,2013-03-04 01:53:00
8:53 PM,53.1,30.9,43,29.81,10.0,SE,17.3,-,N/A,,Clear,140,2013-03-04 02:53:00
9:53 PM,51.1,30.9,46,29.81,10.0,SE,15.0,-,N/A,,Clear,130,2013-03-04 03:53:00
10:53 PM,51.1,30.9,46,29.77,10.0,SE,18.4,-,N/A,,Clear,140,2013-03-04 04:53:00
11:53 PM,50.0,30.9,48,29.74,10.0,SE,15.0,-,N/A,,Clear,140,2013-03-04 05:53:00